Crystal Lake Weather Center

Moon Phase Calendar



Crystal Lake Water Level
Online Cameras

 


      

Current Conditions in Mountain Top
5/22/2022 6:43:13 PM

77°F
Feels Like 79
Clouds
Humidity
95%
Pressure
30.03"
Wind
9.6 mph (NNW)
Dew Point
76°F
UV Index
0/10 (Low)
Visibility
6 mi

Hourly Forecast

Date & Time Sun, May 22
6:00 PM
Sun, May 22
7:00 PM
Sun, May 22
8:00 PM
Sun, May 22
9:00 PM
Sun, May 22
10:00 PM
Sun, May 22
11:00 PM
Mon, May 23
12:00 AM
Mon, May 23
1:00 AM
Mon, May 23
2:00 AM
Mon, May 23
3:00 AM
Mon, May 23
4:00 AM
Mon, May 23
5:00 AM
Mon, May 23
6:00 AM
Mon, May 23
7:00 AM
Mon, May 23
8:00 AM
Mon, May 23
9:00 AM
Mon, May 23
10:00 AM
Mon, May 23
11:00 AM
Mon, May 23
12:00 PM
Mon, May 23
1:00 PM
Mon, May 23
2:00 PM
Mon, May 23
3:00 PM
Mon, May 23
4:00 PM
Mon, May 23
5:00 PM
Mon, May 23
6:00 PM
Mon, May 23
7:00 PM
Mon, May 23
8:00 PM
Mon, May 23
9:00 PM
Mon, May 23
10:00 PM
Mon, May 23
11:00 PM
Tue, May 24
12:00 AM
Tue, May 24
1:00 AM
Tue, May 24
2:00 AM
Tue, May 24
3:00 AM
Tue, May 24
4:00 AM
Tue, May 24
5:00 AM
Tue, May 24
6:00 AM
Tue, May 24
7:00 AM
Tue, May 24
8:00 AM
Tue, May 24
9:00 AM
Tue, May 24
10:00 AM
Tue, May 24
11:00 AM
Tue, May 24
12:00 PM
Tue, May 24
1:00 PM
Tue, May 24
2:00 PM
Tue, May 24
3:00 PM
Tue, May 24
4:00 PM
Tue, May 24
5:00 PM
Condition
Rain

Clouds

Clouds

Clouds

Clouds

Clouds

Clouds

Clouds

Clouds

Clouds

Clouds

Clouds

Clouds

Clouds

Clouds

Clouds

Clouds

Clouds

Clouds

Clouds

Clouds

Clouds

Clouds

Clouds

Clouds

Clouds

Clouds

Clouds

Clouds

Clouds

Clouds

Clouds

Clouds

Clouds

Clouds

Clouds

Clouds

Clouds

Clouds

Clouds

Clouds

Clouds

Clouds

Clouds

Clouds

Clouds

Clouds

Clouds
Temperature 75°F77°F73°F68°F61°F54°F47°F46°F45°F45°F44°F44°F44°F45°F47°F50°F54°F56°F59°F61°F63°F63°F64°F63°F61°F58°F55°F53°F52°F50°F49°F48°F47°F45°F45°F44°F44°F47°F51°F55°F59°F62°F63°F65°F66°F66°F62°F63°F
Feels Like 76°F79°F75°F69°F62°F54°F42°F41°F40°F40°F39°F39°F39°F40°F43°F48°F51°F54°F57°F59°F61°F61°F62°F61°F59°F56°F53°F51°F50°F48°F47°F47°F45°F43°F43°F42°F42°F45°F49°F53°F57°F60°F62°F64°F65°F64°F61°F61°F
Cloudiness 88%88%88%93%95%95%98%98%93%100%100%99%99%100%100%100%100%99%100%100%100%100%100%100%100%100%100%100%100%100%100%100%100%100%100%100%100%100%100%100%100%100%100%100%94%56%78%80%
Visibility 6 mi6 mi6 mi6 mi6 mi6 mi6 mi6 mi6 mi6 mi6 mi6 mi6 mi6 mi6 mi6 mi6 mi6 mi6 mi6 mi6 mi6 mi6 mi6 mi6 mi6 mi6 mi6 mi6 mi6 mi6 mi6 mi6 mi6 mi6 mi6 mi6 mi6 mi6 mi6 mi6 mi6 mi6 mi6 mi6 mi6 mi6 mi6 mi
Precipitation 100%80%80%3%0%0%0%0%0%0%0%0%0%0%0%0%0%0%0%0%0%0%0%0%0%0%0%0%0%0%0%0%0%0%0%0%0%0%0%0%0%0%0%0%0%0%0%0%
Humidity 96%95%96%95%95%93%93%91%91%90%89%88%84%79%73%65%57%51%46%43%40%40%40%42%51%58%62%65%69%73%76%79%83%86%86%87%86%80%71%66%60%55%53%51%50%52%62%60%
Dew Point 73°F76°F72°F67°F60°F52°F46°F45°F44°F43°F43°F42°F41°F41°F40°F40°F40°F40°F40°F40°F40°F40°F40°F41°F44°F44°F44°F43°F43°F43°F43°F43°F43°F43°F42°F42°F42°F43°F43°F45°F46°F47°F47°F48°F48°F49°F50°F50°F
Pressure 30.03"30.03"30.03"30.06"30.09"30.15"30.18"30.18"30.21"30.21"30.21"30.21"30.21"30.21"30.24"30.24"30.24"30.24"30.24"30.21"30.21"30.18"30.18"30.18"30.18"30.21"30.21"30.24"30.24"30.27"30.24"30.27"30.24"30.27"30.27"30.27"30.27"30.27"30.27"30.27"30.27"30.27"30.27"30.24"30.24"30.24"30.24"30.24"
Wind Speed 4.6 mph9.6 mph8.5 mph9.3 mph10.4 mph11.9 mph11.3 mph9.9 mph8.8 mph8.9 mph8.8 mph9.1 mph9.7 mph10.2 mph10.1 mph10.4 mph10.4 mph9.8 mph9.3 mph8.8 mph8.6 mph8 mph7.4 mph7.7 mph7.6 mph7.6 mph7.1 mph6.1 mph4.8 mph4.6 mph4.4 mph3.8 mph3.9 mph3.9 mph3.9 mph4.4 mph4.2 mph4.8 mph5.9 mph5.9 mph6.2 mph6.8 mph7.5 mph7.8 mph8.3 mph8.9 mph9.2 mph8.7 mph
Wind
Direction
246°
WSW
335°
NNW
356°
N
358°
N
353°
N
352°
N
354°
N
350°
N
344°
NNW
347°
NNW
353°
N
352°
N
351°
N
351°
N
351°
N
352°
N
350°
N
350°
N
353°
N
353°
N
352°
N
354°
N
349°
N
346°
NNW
343°
NNW
346°
NNW
358°
N

N

N

N

N

N
12°
NNE

N
23°
NNE
39°
NE
35°
NE
52°
NE
70°
ENE
93°
E
120°
ESE
142°
SE
151°
SSE
154°
SSE
161°
SSE
159°
SSE
159°
SSE
163°
SSE

Daily Forecast

Date High Low Precip. Humidity
Today
May 22

Rain
83 °F
54 °F
100%
48%
Monday
May 23

Clouds
64 °F
44 °F
0%
43%
Tuesday
May 24

Clouds
66 °F
44 °F
0%
50%
Wednesday
May 25

Clouds
66 °F
43 °F
0%
46%
Thursday
May 26

Clouds
58 °F
45 °F
13%
88%
Friday
May 27

Rain
64 °F
55 °F
100%
95%
Saturday
May 28

Clouds
70 °F
46 °F
15%
35%
Sunday
May 29

Clear
72 °F
49 °F
0%
49%
Monday
May 30

Clouds
79 °F
51 °F
0%
55%
Tuesday
May 31

Rain
85 °F
62 °F
32%
42%
Wednesday
Jun 1

Rain
80 °F
60 °F
85%
65%
Thursday
Jun 2

Rain
67 °F
53 °F
84%
74%
Friday
Jun 3

Clouds
63 °F
56 °F
0%
90%
Saturday
Jun 4

Rain
73 °F
57 °F
100%
92%
Sunday
Jun 5

Rain
61 °F
44 °F
100%
45%
Monday
Jun 6

Clouds
71 °F
38 °F
0%
34%

Temperature 8-14 Day Outlook



Precipitation 8-14 Day Outlook




Quick Links
Crystal Lake News
Crystal Lake Photos
Crystal Lake Videos




About Us
Contact Us
Site Map
Search Site
Advertise With Us
   
Crystal-PA.LakesOnline.com
THE CRYSTAL LAKE WEBSITE

Copyright 2022, Lakes Online
Privacy    |    Legal